Weather History for KDKK - January, 2014

Change the Weather History Date:

Saturday, January 4, 2014

  Actual Average Record
Temperature  
Mean Temperature 22 °F -  
Max Temperature 35 °F 35 °F 64 °F (1997)
Min Temperature 10 °F 22 °F -7 °F (1981)
Degree Days  
Heating Degree Days 42    
Moisture  
Dew Point 4 °F    
Average Humidity 43    
Maximum Humidity 61    
Minimum Humidity 31    
Precipitation  
Precipitation 0.00 in - - ()
Sea Level Pressure  
Sea Level Pressure 30.11 in    
Wind  
Wind Speed 17 mph (SSW)    
Max Wind Speed 26 mph    
Max Gust Speed 45 mph    
Visibility 8 miles    
Events Snow    
Averages and records for this station are not official NWS values.
T = Trace of Precipitation, MM = Missing Value Source: NWS Daily Summary

Daily Weather History Graph

Daily Weather History Graph

Search for Another Location

Airport or City:

Trip Planner

Search our weather history database for the weather conditions in past years. The results will help you decide how hot, cold, wet, or windy it might be!

Date:

Astronomy

Jan. 04, 2014 Rise Set
Actual Time 7:46 AM EST 4:57 PM EST
Civil Twilight 7:15 AM EST 5:29 PM EST
Nautical Twilight 6:39 AM EST 6:04 PM EST
Astronomical Twilight 6:05 AM EST 6:38 PM EST
Moon 9:46 AM EST (1/4) 9:21 PM EST (1/4)
Length of Visible Light 10h 14m
Length of Day
9h 10m
Waxing Crescent, 15% of the Moon is Illuminated
Jan 4
Waxing Crescent
Jan 7
First Quarter
Jan 15
Full
Jan 24
Last Quarter
Jan 30
New

Hourly Weather History & Observations

Time (EST) Temp. Windchill Dew Point Humidity Pressure Visibility Wind Dir Wind Speed Gust Speed Precip Events Conditions
12:53 AM 10.9 °F -3.4 °F -0.0 °F 61% 30.29 in 10.0 mi WSW 11.5 mph - N/A   Overcast
1:53 AM 12.0 °F -1.3 °F 1.0 °F 61% 30.27 in 10.0 mi SW 10.4 mph 24.2 mph N/A   Clear
2:53 AM 14.0 °F -0.2 °F 1.9 °F 59% 30.25 in 10.0 mi SSW 12.7 mph 24.2 mph N/A   Clear
3:53 AM 14.0 °F -0.2 °F 1.9 °F 59% 30.23 in 10.0 mi SSW 12.7 mph 23.0 mph N/A   Clear
4:53 AM 14.0 °F -2.5 °F -0.0 °F 54% 30.22 in 10.0 mi SSW 17.3 mph 20.7 mph N/A   Clear
5:53 AM 14.0 °F -3.4 °F -0.0 °F 54% 30.19 in 10.0 mi SSW 19.6 mph 29.9 mph N/A   Clear
6:53 AM 15.1 °F -3.7 °F -0.0 °F 51% 30.17 in 5.0 mi SSW 24.2 mph 35.7 mph 0.00 in Snow Light Snow
7:53 AM 17.1 °F -0.3 °F -2.0 °F 43% 30.16 in 7.0 mi SSW 21.9 mph 35.7 mph 0.00 in   Clear
8:22 AM 17.6 °F -0.6 °F -0.4 °F 45% 30.10 in 2.0 mi SSW 25.3 mph 36.8 mph 0.00 in Snow Light Snow
8:33 AM 19.4 °F 1.4 °F -0.4 °F 42% 30.10 in 3.0 mi SSW 26.5 mph 38.0 mph 0.00 in Snow Light Snow
8:42 AM 19.4 °F 1.8 °F -0.4 °F 42% 30.10 in 2.0 mi SSW 25.3 mph 39.1 mph 0.00 in Snow Light Snow
8:53 AM 19.0 °F 1.0 °F 1.0 °F 46% 30.14 in 2.5 mi SSW 26.5 mph 38.0 mph 0.00 in Snow Light Snow
9:19 AM 19.4 °F 1.8 °F 1.4 °F 46% 30.09 in 3.0 mi SSW 25.3 mph 39.1 mph 0.00 in Snow Light Snow
9:36 AM 21.2 °F 4.2 °F 1.4 °F 42% 30.09 in 2.5 mi SSW 25.3 mph 42.6 mph 0.00 in Snow Light Snow
9:45 AM 21.2 °F 4.5 °F 1.4 °F 42% 30.09 in 4.0 mi SSW 24.2 mph 35.7 mph 0.00 in Snow Light Snow
9:53 AM 21.9 °F 5.5 °F 1.9 °F 42% 30.12 in 4.0 mi SSW 24.2 mph 34.5 mph 0.00 in Snow Light Snow
10:53 AM 26.1 °F 10.4 °F 3.9 °F 39% 30.09 in 3.0 mi SSW 26.5 mph 44.9 mph 0.00 in Snow Light Snow
11:53 AM 28.9 °F 15.4 °F 6.1 °F 38% 30.03 in 9.0 mi South 21.9 mph 33.4 mph 0.00 in   Clear
12:53 PM 33.1 °F 21.9 °F 7.0 °F 34% 30.01 in 9.0 mi SSW 18.4 mph 34.5 mph N/A   Clear
1:53 PM 35.1 °F 23.8 °F 7.0 °F 31% 30.01 in 10.0 mi SSW 20.7 mph 34.5 mph N/A   Clear
2:53 PM 35.1 °F 24.8 °F 8.1 °F 33% 30.02 in 10.0 mi South 17.3 mph 28.8 mph N/A   Clear
3:53 PM 35.1 °F 25.9 °F 9.0 °F 34% 30.03 in 10.0 mi SSW 13.8 mph 28.8 mph N/A   Overcast
4:53 PM 35.1 °F 25.9 °F 9.0 °F 34% 30.04 in 10.0 mi SSW 13.8 mph 23.0 mph N/A   Overcast
5:53 PM 35.1 °F 25.2 °F 10.0 °F 35% 30.06 in 10.0 mi SSW 16.1 mph 24.2 mph N/A   Overcast
6:53 PM 34.0 °F 24.6 °F 9.0 °F 35% 30.06 in 10.0 mi SSW 13.8 mph 21.9 mph N/A   Scattered Clouds
7:53 PM 34.0 °F 23.8 °F 9.0 °F 35% 30.07 in 10.0 mi SSW 16.1 mph 21.9 mph N/A   Mostly Cloudy
8:53 PM 34.0 °F 24.2 °F 10.0 °F 37% 30.08 in 10.0 mi SSW 15.0 mph 23.0 mph N/A   Overcast
9:53 PM 35.1 °F 27.4 °F 10.9 °F 37% 30.09 in 10.0 mi SW 10.4 mph 18.4 mph N/A   Overcast
10:53 PM 34.0 °F 26.0 °F 12.0 °F 40% 30.10 in 10.0 mi SSW 10.4 mph - N/A   Clear
11:53 PM 34.0 °F 26.6 °F 12.9 °F 42% 30.10 in 10.0 mi SSW 9.2 mph - N/A   Partly Cloudy